Location: Bailen
(14.1842°N, 120.7958°E)
Time: 14:36:12
(UTC+00:00)

GMS 1 Rocket B - Visible Passes

Search period start: 19 April 2026 00:00
Search period end: 29 April 2026 00:00
Orbit: 528 x 1796 km, 29.1° (Epoch: 19 April)

Date Brightness Start Highest point End Pass type
(mag) Time Alt. Az. Time Alt. Az. Time Alt. Az.
19 Apr 8.0 20:30:03 10° SSW 20:39:24 31° SSE 20:48:23 10° E visible
20 Apr 8.0 20:00:02 13° SSW 20:07:54 29° SSE 20:16:51 10° E visible
21 Apr 8.0 19:31:15 19° S 19:36:25 27° SE 19:45:10 10° E visible
22 Apr 7.9 19:02:25 23° SSE 19:04:57 24° SE 19:13:19 10° E visible
22 Apr 7.1 20:51:01 10° SW 21:01:58 65° SSE 21:12:36 10° ENE visible
23 Apr 8.0 18:33:34 22° SE 18:33:34 22° SE 18:41:20 10° E visible
23 Apr 7.1 20:22:07 19° SW 20:30:23 61° SSE 20:41:13 10° ENE visible
24 Apr 8.3 18:04:39 18° SE 18:04:39 18° SE 18:09:10 10° ESE visible
24 Apr 7.1 19:53:12 31° SSW 19:58:49 57° SSE 20:09:43 10° ENE visible
25 Apr 8.6 17:35:43 12° ESE 17:35:43 12° ESE 17:36:49 10° ESE visible
25 Apr 7.0 19:24:15 43° S 19:27:17 53° SSE 19:38:07 10° ENE visible
25 Apr 7.0 21:13:37 10° WSW 21:24:35 71° NNW 21:35:28 10° ENE visible
26 Apr 7.0 18:55:15 49° SSE 18:55:48 49° SE 19:06:26 10° ENE visible
26 Apr 6.9 20:43:47 16° WSW 20:52:56 75° NNW 21:04:07 10° ENE visible
27 Apr 7.3 18:26:12 42° ESE 18:26:12 42° ESE 18:34:38 10° ENE visible
27 Apr 6.8 20:14:44 28° WSW 20:21:19 78° NNW 20:32:39 10° ENE visible
28 Apr 7.8 17:57:06 30° ESE 17:57:06 30° ESE 18:02:46 10° E visible
28 Apr 6.6 19:45:38 44° WSW 19:49:44 82° NNW 20:01:07 10° ENE visible
